GFSSGP_prec_cloud_315.txt.gz
Cloud_Cover
84 13 1 0 0 0 1 5 5 1 3 33 100 100 100 100 100 100 100 94 56 80 87 82 97 92 83 7 11 6 23 19 6 7 51 100 100 100 100 96 100 100 79 100 100 100 97 100 100
16 5 12 22 0 6 5 5 0 4 0 3 51 100 100 100 100 100 100 100 78 97 36 39 4 8 39 36 3 0 2 2 1 5 78 100 100 100 100 98 85 95 97 92 99 100 100 100 83
6 0 4 2 0 95 0 5 4 3 0 2 48 91 82 78 92 90 41 46 9 9 28 17 72 9 5 0 0 0 0 0 0 2 100 100 100 100 100 100 87 97 91 100 98 92 100 87 78
0 0 24 84 81 4 3 5 5 0 0 0 0 0 2 21 100 79 66 52 94 24 24 3 7 5 0 0 0 5 59 97 100 100 100 100 100 97 32 100 92 6 97 100 100 99 100 100 100
1 51 100 96 44 5 0 32 6 0 2 4 2 25 68 82 88 68 87 54 31 20 17 4 1 0 0 0 17 100 100 100 100 100 98 100 100 100 99 29 5 5 61 100 100 100 5 97 72
28 100 100 34 3 0 0 6 8 4 3 0 0 34 57 81 100 83 99 74 52 0 0 0 4 24 5 17 100 100 100 100 100 100 100 100 94 85 99 100 74 96 100 100 100 100 93 11 63
100 100 89 2 3 0 1 80 12 10 28 0 0 52 72 100 100 88 100 73 40 0 0 0 1 1 30 100 100 100 100 100 100 100 100 100 71 75 11 69 100 100 100 100 100 100 100 100 100
100 100 59 5 2 0 17 71 5 53 5 0 0 3 74 100 100 100 100 100 54 13 1 0 0 1 100 100 100 100 56 5 2 6 0 0 0 0 0 0 4 97 100 100 98 49 5 5 5
100 100 88 4 0 0 25 36 44 9 5 0 0 0 0 100 100 100 100 100 100 56 17 2 0 51 72 100 100 53 0 0 0 0 0 0 0 0 0 0 0 0 2 5 5 0 0 0 0
100 100 8 3 0 5 5 5 100 4 5 1 6 4 28 100 100 100 100 100 100 83 95 23 1 0 2 85 96 8 4 0 0 0 0 0 0 0 0 0 0 0 0 0 0 0 0 0 0
100 100 5 0 2 10 5 81 100 12 5 0 5 97 100 100 100 100 100 100 100 100 100 100 32 31 8 12 25 31 2 0 0 0 0 0 0 0 0 0 0 0 0 0 0 0 0 0 0
100 100 6 0 6 100 9 52 33 100 5 0 0 9 79 94 60 47 96 99 100 100 100 100 68 53 41 44 32 9 0 0 0 0 0 0 0 0 0 0 0 0 0 0 0 0 0 0 0
100 100 13 0 5 98 2 28 96 88 0 0 12 35 51 2 0 0 4 11 100 100 100 100 87 64 56 38 25 0 0 0 0 0 0 0 0 0 0 0 0 0 0 0 0 0 0 0 0
100 100 46 5 21 12 5 5 100 31 0 0 14 7 9 0 0 0 24 48 100 100 100 100 100 76 54 33 3 0 0 0 0 0 0 0 0 0 0 0 0 0 0 0 0 0 0 0 0
100 96 100 29 48 5 4 19 100 31 10 25 20 22 6 0 0 0 0 30 100 100 100 100 100 81 35 9 0 0 0 0 0 0 0 0 0 0 0 0 0 0 0 0 0 0 0 0 0
100 79 4 75 50 2 2 97 100 78 41 37 61 93 61 2 0 0 0 6 97 100 100 100 90 98 56 96 100 94 87 85 99 1 0 0 0 0 0 0 0 0 0 0 0 0 0 0 0
71 5 30 97 5 26 12 5 89 44 73 60 83 100 97 78 12 1 0 0 31 18 30 47 32 40 36 100 100 100 100 100 100 18 0 0 0 0 0 0 0 0 0 0 0 0 0 0 0
86 90 100 44 94 100 44 27 100 92 98 34 95 100 100 99 20 1 0 0 0 0 0 0 2 0 35 100 100 100 100 100 56 19 14 0 0 0 0 0 0 0 0 0 0 0 0 0 0
100 100 100 79 100 100 100 100 100 100 100 53 96 99 100 79 40 0 0 0 0 0 0 0 0 4 100 100 100 100 100 100 100 100 95 12 0 0 0 0 0 0 0 3 5 5 0 0 0
100 100 100 100 100 100 99 97 98 95 97 6 53 50 34 28 14 6 0 0 0 0 1 2 4 5 97 96 86 95 98 100 96 100 86 10 7 0 0 2 4 5 4 4 2 0 0 0 0
100 100 100 100 100 100 99 48 5 73 18 5 37 20 98 0 2 15 22 5 0 0 0 6 5 2 6 0 0 0 52 94 100 100 99 0 0 5 0 96 0 0 3 4 1 2 2 2 0
100 100 100 100 100 100 67 5 5 88 100 49 15 7 100 15 0 1 11 21 7 0 5 13 5 5 1 0 24 4 0 1 59 100 100 3 0 0 0 100 7 5 5 5 5 0 0 0 0
100 100 100 100 100 100 11 3 5 72 75 100 7 6 77 30 2 0 0 0 0 4 6 7 5 5 5 15 96 80 6 0 1 98 100 74 0 0 1 52 6 5 5 5 5 5 5 5 4
100 100 100 100 100 93 10 2 4 14 95 100 77 5 29 27 4 15 4 0 0 6 7 15 41 9 22 100 100 100 79 4 1 75 100 59 5 5 5 5 5 5 5 5 5 5 5 5 5
100 100 100 100 34 3 0 0 5 81 100 100 99 5 5 19 7 79 94 32 45 80 11 11 37 37 6 100 100 100 100 86 8 6 44 25 24 7 57 24 5 5 5 5 5 4 5 5 5
100 100 100 5 5 2 0 10 5 100 100 100 100 77 57 77 100 100 100 69 33 99 92 48 35 30 31 20 100 100 100 100 13 14 6 0 5 5 32 100 6 25 86 90 30 16 62 38 5
100 100 100 100 27 14 5 93 100 100 100 100 100 97 44 28 78 73 24 15 65 51 99 100 83 34 27 16 6 47 26 62 19 40 6 5 5 5 28 95 6 100 100 100 15 57 65 32 6
100 100 100 100 96 19 4 100 100 91 100 100 100 100 100 97 99 88 16 19 30 51 46 100 94 33 23 26 12 5 5 5 5 12 5 5 5 9 99 46 92 100 100 86 71 87 21 44 42
91 100 72 26 100 91 5 97 100 100 100 100 100 100 100 100 100 100 88 14 27 57 24 69 100 94 77 90 83 59 26 5 75 94 100 99 40 100 98 100 100 100 77 82 89 85 82 94 100
100 100 100 72 100 100 5 61 100 100 100 100 100 100 100 100 100 100 100 100 99 66 84 81 100 100 82 98 76 64 98 100 100 100 100 100 98 100 100 100 100 86 100 96 96 78 100 100 100

GFSSGP_prec_cloud_318.txt.gz
Cloud_Cover
5 5 24 83 56 0 0 0 0 3 1 2 5 66 27 16 14 57 47 12 43 5 19 14 25 100 99 62 99 100 100 100 100 100 100 100 100 99 58 100 46 40 66 100 100 100 100 100 100
7 5 5 24 5 0 0 0 0 0 0 1 1 22 72 100 100 100 100 84 69 65 52 34 66 100 100 99 49 91 24 79 87 100 100 100 100 98 71 33 7 28 100 100 100 100 100 100 100
5 4 11 100 2 0 0 0 0 0 0 1 67 73 89 100 100 100 100 100 93 59 96 10 96 70 56 5 5 5 4 3 5 97 100 100 99 85 100 48 26 9 64 99 100 100 100 99 10
98 5 99 44 0 0 2 1 0 0 0 0 6 52 68 100 99 70 18 7 5 100 99 4 100 46 5 4 0 0 0 0 61 100 100 100 100 100 57 73 53 67 100 100 71 100 100 100 99
5 20 100 100 2 0 63 2 0 0 0 4 3 0 42 81 49 93 52 73 100 67 99 29 93 31 5 0 8 56 100 100 100 88 100 100 100 100 100 70 94 72 52 95 98 99 96 100 100
100 100 100 100 0 4 84 0 0 0 4 2 3 0 69 99 100 90 75 52 32 26 41 48 11 4 0 16 100 100 100 88 92 96 99 100 100 99 18 69 89 90 100 100 100 99 7 13 63
100 100 100 66 2 98 46 0 0 3 5 5 4 0 91 100 100 97 81 27 21 39 35 43 22 3 81 100 100 100 100 100 100 100 27 32 96 100 100 94 100 100 100 100 100 100 88 5 5
100 100 96 1 86 99 16 0 0 5 5 0 3 0 63 99 100 98 72 53 12 15 74 65 99 92 100 97 100 100 99 98 99 69 1 0 0 0 88 100 100 100 100 98 100 100 99 100 100
100 100 5 57 100 100 4 4 0 5 14 5 3 0 6 86 100 100 100 91 48 17 19 38 41 98 100 100 100 10 2 0 2 0 0 0 0 0 0 0 74 100 100 95 100 92 5 9 16
100 100 69 100 100 100 3 0 0 3 68 6 0 1 46 100 100 100 100 100 70 45 50 36 92 100 100 100 52 87 7 0 0 0 0 0 0 0 0 0 0 26 19 6 11 0 5 5 4
100 100 100 100 100 53 3 0 0 30 22 5 0 0 100 100 100 100 100 67 58 80 75 99 92 86 100 100 70 97 67 0 0 0 0 0 0 0 0 0 0 0 0 2 2 0 2 0 0
100 100 100 100 100 74 0 0 0 5 93 0 0 0 100 100 100 100 100 100 100 79 90 80 84 73 97 97 72 52 18 0 0 0 0 0 0 0 0 0 0 0 0 0 0 0 0 0 0
100 100 100 100 100 10 0 1 0 5 34 0 0 5 100 100 94 25 96 100 100 77 62 88 71 62 73 61 65 56 10 7 0 0 0 0 0 0 0 0 0 0 0 0 0 0 0 0 0
100 100 100 100 82 5 0 4 4 12 96 0 0 0 34 31 8 5 7 31 100 96 99 92 95 94 72 70 29 14 8 14 2 0 0 0 1 0 0 0 0 0 0 0 0 0 0 0 0
100 100 100 100 30 0 0 0 5 12 9 3 0 0 5 0 0 0 1 1 39 100 100 100 100 96 87 62 20 3 5 0 2 0 0 0 0 0 0 0 0 0 0 0 0 0 0 0 0
100 100 100 100 10 0 0 33 7 30 7 5 0 0 5 0 0 1 19 35 28 62 100 100 100 97 52 51 42 10 1 5 5 0 0 0 0 0 0 1 0 0 0 0 0 0 0 0 0
100 99 100 100 19 5 2 9 5 5 38 5 0 0 1 17 16 1 9 8 18 31 100 100 100 61 32 41 15 14 40 50 49 13 6 0 0 0 0 0 0 0 0 0 0 0 0 0 0
100 100 100 100 100 6 66 43 5 12 100 3 2 11 17 6 1 1 2 1 0 4 17 51 52 24 11 23 62 99 100 100 100 24 8 0 0 0 0 0 0 0 0 0 0 0 0 0 0
100 100 100 100 100 95 100 100 5 45 62 60 5 32 100 37 4 24 7 0 0 0 0 2 6 0 0 0 100 100 100 100 98 87 100 80 0 0 0 0 0 0 0 0 0 3 5 5 5
100 100 100 100 100 100 100 100 25 38 74 86 5 0 92 100 50 51 22 17 16 6 14 0 1 0 0 76 100 100 100 100 100 100 100 96 2 0 0 0 0 0 3 5 5 5 5 3 0
100 100 100 100 100 100 100 100 6 15 5 5 5 5 11 5 8 48 35 24 28 29 3 0 0 0 0 14 100 100 100 100 100 92 100 98 3 0 0 1 0 0 0 0 0 1 5 0 1
100 100 100 100 100 100 96 33 32 2 5 84 49 20 34 8 1 1 30 33 51 25 9 5 49 5 5 100 95 8 22 72 31 98 100 100 7 0 0 0 3 0 5 5 5 5 5 5 1
100 100 100 100 100 100 66 62 100 1 3 95 100 91 64 6 5 0 0 0 0 1 14 4 52 5 16 4 0 4 0 14 2 22 100 100 60 0 0 0 34 2 3 5 5 5 5 5 5
100 100 100 100 100 100 52 3 6 0 13 100 100 100 65 5 5 6 1 0 0 11 26 0 5 14 71 24 5 4 48 76 4 0 14 100 100 29 0 0 0 4 5 5 5 5 4 5 14
100 100 100 100 100 100 14 5 5 3 5 57 100 100 100 5 5 5 8 10 3 22 32 32 16 22 51 5 5 5 96 85 95 19 0 22 100 65 0 0 0 1 5 5 5 5 5 9 5
100 100 95 100 89 100 28 4 5 72 93 84 100 100 100 74 84 50 12 98 25 5 7 16 6 10 19 14 5 89 99 100 100 100 81 0 73 8 2 2 50 6 5 5 5 5 5 5 5
100 100 77 5 99 100 100 28 100 100 100 100 100 100 100 100 100 95 29 5 11 7 5 0 0 6 20 13 37 76 100 100 100 100 100 28 50 6 5 5 5 6 5 63 5 5 5 10 5
100 100 100 7 52 100 100 15 100 100 100 100 100 100 100 100 100 85 15 6 5 31 6 6 24 5 5 18 32 5 51 100 100 100 100 5 35 5 5 7 28 46 46 100 100 7 5 5 34
99 89 36 46 98 100 100 100 100 100 100 100 100 100 100 100 100 100 5 5 5 10 100 51 70 24 28 30 39 29 61 90 100 65 52 30 61 63 82 85 84 93 94 100 99 92 87 97 97
100 100 72 5 87 100 100 100 100 100 100 100 100 100 100 100 100 100 96 5 50 35 10 63 100 100 84 83 50 54 70 98 99 100 94 100 100 98 85 100 93 100 100 100 89 73 99 100 100

GFSSGP_prec_cloud_321.txt.gz
Cloud_Cover
90 100 85 66 5 5 14 51 4 2 4 0 0 0 3 5 18 40 8 6 0 5 10 92 100 100 100 100 100 100 100 100 100 100 100 100 100 100 43 27 100 100 100 100 100 100 100 100 100
78 100 94 53 10 5 9 5 0 5 2 0 0 0 5 9 0 3 39 37 0 0 27 54 68 84 100 100 100 100 100 100 100 100 100 100 100 100 100 87 84 100 100 100 100 100 100 100 92
100 100 92 71 5 16 100 10 5 3 0 0 0 0 2 38 48 72 63 13 73 36 99 5 100 94 42 100 100 100 100 100 100 100 100 98 46 92 100 100 67 100 100 100 100 100 100 100 100
100 100 97 5 71 5 78 15 5 0 0 0 0 3 4 19 9 91 100 100 100 100 34 72 100 100 100 52 11 5 5 10 97 100 100 100 100 70 64 34 25 6 13 100 100 100 100 100 93
100 100 100 100 5 35 98 1 0 0 0 0 6 70 35 38 58 88 55 16 100 79 100 28 66 91 12 4 5 7 5 67 100 100 95 88 83 33 90 75 55 77 99 8 94 46 100 100 100
100 100 100 100 81 96 87 0 0 2 0 0 0 3 53 99 8 27 58 60 100 94 42 58 6 31 5 0 27 78 98 100 42 64 44 100 96 100 69 92 100 100 70 99 98 100 64 96 100
100 100 100 94 18 100 100 0 0 4 2 0 5 0 76 74 21 90 58 60 100 49 74 54 20 5 38 100 98 100 100 100 60 65 80 100 100 78 93 100 100 100 100 100 100 100 93 61 93
100 100 98 5 14 100 68 1 5 5 2 0 3 4 46 92 58 100 40 98 100 100 14 100 70 92 100 100 100 100 100 65 100 35 2 16 29 100 100 100 100 100 100 100 100 91 98 78 100
100 100 80 48 100 100 77 2 81 86 0 0 5 5 0 95 100 100 100 48 100 100 90 100 48 100 96 100 100 100 100 25 11 0 0 0 11 15 100 98 92 100 100 100 100 100 95 47 100
100 100 100 100 100 100 70 10 96 5 0 0 4 5 3 100 100 99 80 5 21 88 100 100 100 100 24 50 30 48 1 1 0 0 2 15 19 4 34 80 80 100 97 100 100 100 100 98 67
100 100 100 100 100 93 20 16 76 0 0 2 2 18 86 100 100 100 100 36 93 27 31 100 100 100 85 44 89 90 52 15 16 14 12 11 0 0 7 2 19 76 100 100 47 10 5 11 24
100 100 100 100 100 100 17 100 8 2 0 0 5 4 94 100 100 100 100 53 100 100 100 100 51 86 58 100 88 100 13 16 6 11 16 4 12 13 19 23 23 3 5 3 0 1 5 5 4
100 100 100 100 100 99 8 100 29 4 0 0 5 8 100 100 100 99 100 95 89 91 100 100 100 100 93 79 100 97 27 13 16 0 0 23 15 20 7 3 1 0 0 0 0 0 0 0 0
100 100 97 100 100 86 99 100 76 1 0 0 4 14 100 100 94 15 100 100 100 95 68 100 100 100 100 100 100 90 13 80 24 26 2 8 14 14 12 17 6 0 0 0 0 0 0 0 0
100 100 100 100 100 100 100 96 12 0 0 3 5 17 68 100 1 0 8 67 100 100 45 100 91 83 97 100 70 50 82 19 32 25 8 17 7 20 10 10 17 4 0 0 0 0 0 0 0
100 100 21 100 100 100 100 100 58 1 0 3 25 7 10 3 0 6 5 3 84 100 100 100 100 100 64 100 100 77 100 49 35 34 9 14 12 9 27 22 25 3 0 0 0 0 0 0 0
100 100 5 74 100 100 100 100 85 0 3 5 100 7 1 1 0 3 1 0 34 97 100 100 100 100 89 100 89 100 100 100 100 50 27 11 16 4 17 33 15 0 0 0 0 0 0 0 0
100 100 6 98 100 100 100 84 5 4 3 5 100 4 0 1 0 0 2 2 16 32 100 100 100 54 22 8 20 91 46 9 0 94 98 9 13 12 46 33 21 0 0 0 0 0 0 0 0
100 100 69 100 100 100 100 100 0 5 17 5 62 42 1 0 0 3 3 12 14 90 83 100 100 35 16 17 42 34 0 20 78 46 100 100 40 20 21 24 3 0 0 0 0 0 0 0 0
100 100 89 100 100 100 100 100 0 5 20 47 100 16 0 0 4 2 0 7 0 82 81 33 17 34 49 5 25 3 4 100 100 100 100 100 100 11 16 27 1 0 0 0 0 0 1 2 4
100 100 100 100 100 100 100 100 0 5 5 5 35 2 0 4 0 0 0 0 0 2 78 19 7 28 78 14 16 4 100 96 100 99 91 100 87 8 0 8 2 0 0 4 5 4 0 4 5
100 100 100 100 100 100 100 100 0 5 5 5 9 30 93 9 1 0 1 1 0 1 19 22 1 0 1 30 0 3 0 9 86 90 56 99 77 4 0 0 0 0 0 0 2 4 5 5 5
100 100 100 100 100 100 100 77 5 41 5 4 6 8 100 61 5 2 0 0 0 0 0 0 4 0 0 0 5 9 41 25 92 47 76 6 100 0 0 0 0 0 0 0 0 5 5 5 4
100 100 100 100 100 100 100 62 4 5 20 10 75 24 85 87 5 5 0 0 0 0 0 0 1 5 5 6 29 39 55 8 98 3 2 2 100 93 1 0 0 0 0 0 0 0 0 0 4
100 100 100 100 100 100 100 100 9 6 25 60 92 88 100 100 80 5 5 0 0 0 0 0 2 5 22 54 39 28 5 7 100 14 0 0 60 100 45 0 0 0 0 0 0 0 5 5 5
100 96 100 63 87 100 69 97 10 12 30 8 7 5 45 100 93 5 5 5 2 0 1 9 13 3 21 36 43 51 52 50 6 82 95 5 0 0 40 9 0 0 0 0 0 0 5 5 5
100 100 100 100 89 100 100 100 67 6 68 100 99 24 76 100 100 94 52 36 6 5 2 0 0 1 5 5 6 17 41 24 43 61 73 5 59 39 5 27 7 3 5 4 5 5 5 5 5
100 100 100 29 18 100 100 100 62 100 100 100 100 100 100 100 100 100 100 23 12 5 5 5 5 2 3 6 15 3 1 5 4 90 100 100 91 100 100 74 58 47 69 56 13 36 13 5 6
100 90 58 70 99 100 100 100 100 100 100 100 100 100 100 100 100 100 100 98 5 3 5 5 5 16 5 2 4 3 4 5 5 83 100 100 100 100 5 10 53 59 53 51 11 11 26 46 80
100 100 100 43 80 23 100 100 100 100 100 100 100 100 100 100 100 100 100 96 94 11 5 6 34 6 18 5 21 14 15 18 5 5 96 100 100 100 5 8 24 71 100 38 80 98 99 95 98

GFSSGP_prec_cloud_324.txt.gz
Cloud_Cover
100 75 8 98 45 70 5 5 95 28 5 10 0 1 5 3 72 46 4 42 5 4 5 5 22 100 62 100 100 100 100 100 100 100 100 100 100 18 100 100 89 100 100 100 100 100 100 100 100
100 90 60 49 90 62 5 5 100 5 4 0 0 2 4 2 4 4 74 34 0 0 5 4 86 96 100 100 100 100 100 100 100 100 100 100 100 99 100 99 100 100 100 100 100 100 100 100 100
99 75 12 20 45 81 56 76 100 5 4 1 4 0 1 0 0 3 69 91 33 14 5 5 36 100 100 100 100 100 100 100 100 100 100 100 87 100 100 100 100 100 100 100 100 100 100 100 100
100 87 37 43 100 96 32 100 39 5 3 0 0 0 0 0 4 2 5 100 0 2 2 5 96 100 100 100 100 100 100 100 100 100 100 100 100 100 100 100 100 100 87 100 100 100 100 100 100
98 87 78 100 100 73 74 77 5 5 0 0 0 0 7 98 53 9 58 66 64 65 5 22 100 100 98 90 87 100 100 100 100 100 100 100 99 98 55 69 92 100 98 100 98 100 100 100 100
57 100 97 100 100 100 40 72 6 35 4 0 1 2 35 100 42 6 100 5 63 2 5 38 100 64 76 96 20 6 43 100 47 9 61 94 76 36 90 90 100 79 84 45 97 77 97 100 94
8 95 100 100 96 96 5 55 5 95 0 1 4 4 26 97 38 6 100 45 19 68 12 13 5 4 2 5 26 98 100 88 100 100 93 61 64 58 81 65 100 100 100 99 100 39 13 72 100
67 100 100 52 11 100 34 1 5 40 5 5 5 2 30 88 46 30 100 33 71 25 27 1 0 2 89 100 100 100 100 100 100 74 100 96 5 70 100 73 93 95 100 100 100 100 96 92 66
6 98 100 46 6 100 38 8 68 39 15 5 5 0 0 64 11 77 100 19 3 3 22 50 10 100 100 100 100 100 100 86 7 5 3 0 91 94 54 92 98 79 46 93 100 100 100 88 100
0 16 100 100 100 100 100 61 83 96 5 5 60 0 0 39 19 10 100 100 90 0 76 100 100 100 97 100 72 49 0 0 0 0 3 9 1 26 100 81 87 65 100 100 100 100 95 93 41
0 85 100 100 100 85 54 5 100 24 5 6 24 0 0 98 98 4 4 97 100 28 100 1 100 100 89 20 0 0 0 0 0 14 21 0 0 0 100 96 80 99 100 100 100 100 100 100 46
93 100 100 100 100 17 29 63 100 8 50 5 3 3 7 90 100 8 0 46 100 100 63 100 87 100 25 34 60 99 42 0 6 0 0 0 0 39 56 93 72 100 99 100 99 84 97 78 100
100 100 100 76 99 100 100 100 100 5 5 18 33 5 82 100 100 100 80 2 100 100 100 100 97 100 68 83 96 98 15 0 0 0 0 31 0 10 2 0 4 0 6 80 29 97 37 0 5
89 100 100 31 100 100 100 100 11 9 19 28 5 0 89 100 100 100 100 100 27 100 100 100 14 28 76 100 100 100 0 88 0 0 0 0 0 0 0 0 0 0 0 0 0 0 0 2 1
93 100 100 97 100 100 100 98 9 15 68 42 3 0 100 100 100 100 100 100 100 100 100 100 100 80 65 5 100 100 72 94 100 2 0 47 0 0 0 0 0 0 0 0 0 0 0 0 0
100 100 79 100 98 100 59 80 99 11 68 39 0 29 100 100 31 17 99 100 100 100 100 100 100 100 100 100 100 100 98 44 44 8 0 38 74 12 0 0 0 0 0 0 0 0 0 0 0
64 100 96 98 24 100 94 100 7 17 100 79 5 25 100 100 8 4 0 74 100 100 98 100 74 100 100 100 100 100 100 100 100 38 0 0 22 1 1 47 0 0 0 0 0 0 0 0 0
6 100 100 77 45 99 100 82 98 31 100 100 95 0 15 24 0 10 0 0 7 100 100 100 100 99 100 100 49 100 100 100 100 99 93 0 4 2 100 73 0 0 0 0 0 0 0 0 0
100 100 100 100 50 59 100 95 100 94 100 20 5 0 5 16 0 4 0 15 7 0 87 100 100 100 90 56 1 62 0 0 7 67 100 89 71 0 94 15 0 0 0 0 0 0 0 0 0
100 100 100 100 75 100 100 100 100 100 100 100 53 14 35 15 0 0 4 0 33 5 0 100 100 95 15 32 0 0 0 0 0 9 100 100 100 0 0 0 0 0 0 0 0 0 0 0 0
100 100 100 52 47 100 100 68 100 100 100 38 4 1 5 5 1 0 11 3 22 83 93 87 97 100 5 32 1 0 0 0 0 59 94 92 100 20 0 0 0 0 0 0 0 0 0 2 5
100 100 100 15 100 100 100 99 100 100 100 12 5 5 5 92 46 0 0 0 0 0 32 31 0 0 0 12 0 0 0 0 0 81 100 0 77 83 0 0 0 0 0 0 0 0 0 5 5
100 100 100 90 100 100 100 100 100 100 78 5 4 36 92 100 56 5 0 0 0 0 0 55 58 0 0 62 31 0 0 0 0 7 98 0 0 83 0 0 0 0 0 0 0 0 0 0 0
100 100 100 100 100 100 100 100 100 100 100 10 18 65 100 100 98 5 0 0 0 0 0 0 44 0 0 0 0 0 0 0 0 4 2 24 0 63 4 0 0 0 0 0 0 0 0 0 0
100 100 100 100 100 79 100 100 100 100 98 8 9 92 100 100 100 59 5 0 0 0 0 0 0 0 0 0 0 0 1 5 5 1 5 0 0 3 99 0 0 0 0 0 0 0 0 0 0
100 96 82 100 11 100 100 100 100 100 99 4 5 94 34 70 40 6 5 2 0 0 0 0 0 0 0 0 0 5 5 7 15 80 2 0 0 0 3 14 0 0 0 0 0 0 0 0 0
100 100 100 100 100 100 43 89 100 100 100 6 17 97 82 94 82 25 5 13 1 0 0 0 0 0 0 0 5 5 24 12 23 18 5 5 0 0 0 0 0 0 0 0 0 0 1 1 5
100 100 100 100 89 100 67 100 100 100 100 48 100 100 100 100 100 99 77 100 52 5 4 0 0 0 0 1 5 5 5 5 5 57 9 5 5 1 14 29 4 0 0 3 7 5 47 5 5
100 100 50 73 100 100 76 100 100 100 100 100 100 100 100 100 100 100 96 62 100 8 5 0 0 0 0 0 0 4 5 5 30 70 30 5 1 16 71 68 49 94 29 7 9 19 5 5 5
100 100 100 73 20 100 100 100 100 100 100 100 100 100 100 100 100 97 10 61 92 100 8 0 5 0 0 0 0 0 5 5 14 6 2 0 5 25 100 100 100 12 9 32 44 18 5 5 12

GFSSGP_prec_cloud_327.txt.gz
Cloud_Cover
0 0 0 1 5 90 92 70 5 76 61 88 71 20 0 2 5 6 6 2 2 11 19 5 5 84 9 99 100 100 100 98 74 77 20 100 100 100 100 100 100 100 100 98 100 100 100 100 50
0 0 4 3 4 100 100 40 5 17 95 36 1 0 0 4 5 15 20 0 5 5 5 5 18 69 42 100 96 100 100 100 100 100 100 100 99 100 99 100 100 100 100 100 100 100 100 100 100
0 0 4 0 5 99 39 14 98 62 52 0 0 1 3 4 5 4 0 0 4 5 0 1 42 92 95 100 100 100 100 100 100 100 100 100 90 100 100 100 100 100 100 100 100 100 100 100 100
0 0 3 3 99 77 5 5 5 5 5 0 3 5 0 5 5 0 0 0 0 0 3 0 22 24 100 100 100 100 100 100 100 100 100 90 100 100 100 93 100 100 100 100 100 100 100 100 100
0 0 0 61 100 4 12 15 5 32 7 2 2 4 0 100 40 0 0 0 5 13 15 3 6 82 100 100 100 100 100 100 100 100 100 100 100 98 99 100 100 73 45 99 100 100 100 100 100
2 0 0 99 100 5 6 20 62 50 5 3 2 0 28 100 28 0 0 4 1 16 6 12 86 28 84 100 100 100 100 100 100 100 100 100 71 91 99 100 83 98 100 86 87 100 84 100 100
0 0 5 100 91 3 59 76 8 4 5 4 6 5 71 100 28 3 27 1 3 3 16 8 29 86 99 98 100 100 100 100 100 83 99 100 95 5 72 15 97 100 100 97 100 100 97 49 100
0 0 6 100 5 4 5 60 2 2 5 55 56 38 20 79 8 71 3 0 4 10 4 2 5 5 5 89 33 47 100 100 97 6 6 43 5 5 79 22 99 96 100 100 100 24 100 98 61
0 0 12 100 3 5 9 29 13 0 5 7 85 5 1 5 0 91 4 12 1 0 1 0 1 0 2 55 100 91 96 41 5 5 8 5 5 14 45 60 19 64 99 100 100 98 12 76 85
0 0 25 100 100 59 87 14 59 20 5 77 44 5 0 5 0 8 5 19 40 4 0 0 0 100 100 100 100 100 91 85 11 5 5 8 5 95 27 99 99 100 53 100 100 84 78 100 88
0 0 60 100 100 71 100 19 89 67 5 50 5 3 3 5 0 0 2 0 6 0 0 4 100 100 100 100 20 0 5 5 3 5 1 0 0 58 14 8 10 100 100 100 100 100 100 100 100
0 0 76 100 96 6 97 41 71 76 26 13 4 0 17 71 5 0 5 0 0 0 9 100 100 100 60 1 0 0 0 0 0 0 0 0 0 0 83 57 90 31 100 100 100 100 100 69 68
0 0 100 100 9 3 100 60 98 89 5 5 4 5 12 42 1 0 4 2 37 38 99 0 100 60 0 0 26 31 0 0 0 0 0 0 0 0 0 6 84 100 100 100 100 99 100 100 100
0 4 100 70 5 3 100 100 100 22 70 30 5 5 6 17 4 4 3 0 98 100 100 82 100 65 34 100 14 72 0 0 0 0 2 0 0 0 0 1 5 95 48 100 100 100 98 11 82
36 96 100 5 5 1 100 100 100 42 100 76 32 17 11 100 5 9 5 12 100 100 100 100 98 40 84 71 99 100 44 2 0 0 0 0 0 0 0 0 0 0 0 1 28 18 100 98 4
100 100 95 3 4 3 100 100 94 90 100 88 94 99 70 100 100 94 17 1 49 100 100 100 2 48 100 100 100 100 100 97 25 0 1 82 2 0 0 0 0 0 0 0 0 0 0 0 0
54 10 8 6 5 33 72 100 6 100 100 91 100 97 95 100 100 100 100 100 10 82 100 100 90 78 51 57 100 100 100 100 83 4 0 2 13 0 0 0 0 0 0 0 0 0 0 0 0
1 0 33 22 0 1 88 91 100 100 100 100 100 100 97 100 98 100 100 100 100 100 100 100 100 100 100 100 100 100 100 100 100 71 1 0 0 0 17 0 0 0 0 0 0 0 0 0 0
0 8 60 96 51 65 100 100 100 100 100 98 100 100 100 100 100 43 7 99 100 100 100 100 100 100 100 100 100 100 100 97 100 100 68 17 0 0 67 30 0 0 0 0 0 0 0 0 0
5 12 100 100 100 68 100 100 100 100 100 100 100 100 63 99 100 65 21 0 0 57 100 100 100 100 100 100 78 0 0 0 0 0 21 33 6 0 0 0 0 0 0 0 0 0 0 0 0
4 76 100 100 100 100 100 100 100 100 100 100 100 100 7 31 34 31 16 0 0 0 1 55 100 100 100 84 68 36 5 6 13 0 1 57 70 26 0 0 0 0 0 0 0 0 0 0 0
4 76 100 100 95 100 100 100 30 100 100 100 100 100 100 96 18 97 80 4 0 0 0 0 69 100 100 19 88 4 0 2 0 0 0 1 100 97 0 0 0 0 0 0 0 0 0 0 0
38 100 100 100 100 100 100 98 98 100 100 97 100 100 100 100 100 100 100 5 0 0 0 0 2 99 100 100 88 9 0 0 0 0 0 35 19 22 14 0 0 0 0 0 0 0 0 0 0
100 100 100 100 100 100 100 58 98 100 100 100 100 100 100 100 100 100 100 29 3 0 0 0 0 5 20 37 73 0 0 0 0 0 0 0 0 11 72 0 0 0 0 0 0 0 0 0 0
100 98 100 100 98 83 30 10 98 100 100 100 100 100 100 100 97 100 100 72 5 0 0 0 0 1 2 0 3 0 0 0 0 0 0 0 0 0 0 0 0 0 0 0 0 0 0 0 0
100 5 100 74 12 100 63 7 100 100 100 100 100 100 100 100 85 100 100 100 41 2 0 0 0 0 0 0 0 0 0 0 0 0 0 0 0 0 0 0 0 0 0 0 0 0 0 0 0
99 98 100 100 100 100 80 99 100 100 100 100 100 100 100 24 63 69 99 99 98 5 0 0 0 0 0 0 0 0 0 0 0 0 5 1 0 0 0 0 5 0 0 0 0 0 0 0 0
100 93 100 100 100 100 84 100 100 100 100 100 100 100 100 100 99 100 82 73 99 46 11 2 0 0 0 0 0 0 0 0 0 4 5 5 5 3 5 5 5 5 0 0 0 0 0 0 0
79 100 51 98 80 100 100 100 100 100 100 100 100 100 100 100 100 100 100 100 100 18 72 7 0 0 0 0 0 0 0 0 0 13 5 5 5 5 5 2 1 0 0 0 2 0 0 4 5
100 100 73 57 99 100 100 99 100 100 100 100 100 100 100 100 100 76 17 41 7 5 5 5 5 3 0 0 0 0 0 0 0 32 26 5 5 50 5 5 5 0 0 0 0 5 5 5 5

GFSSGP_prec_cloud_330.txt.gz
Cloud_Cover
31 36 0 4 5 6 20 25 17 6 5 10 55 16 5 5 5 3 2 4 5 5 5 5 5 59 5 52 64 24 5 70 65 99 100 100 100 51 100 100 100 100 91 100 100 100 100 100 100
17 5 0 4 5 15 42 2 5 5 26 66 5 11 9 4 0 72 44 4 1 5 44 22 5 29 5 21 99 15 5 94 95 98 100 100 100 100 100 100 100 100 95 100 100 100 100 100 100
0 0 1 0 1 2 2 3 5 98 46 34 5 5 3 47 2 6 3 0 4 5 5 5 5 77 66 40 100 100 100 100 100 100 100 100 100 100 100 78 100 100 100 100 100 100 100 100 100
0 0 0 0 2 3 0 2 5 5 5 52 5 5 0 0 0 1 4 0 5 5 5 5 5 7 77 100 100 100 100 100 100 100 100 100 100 100 89 10 100 100 100 100 100 100 26 81 100
0 0 0 0 58 10 3 4 5 9 8 12 5 4 11 2 0 0 8 6 41 29 0 0 2 5 57 100 100 100 100 100 70 99 100 100 91 98 97 58 100 100 100 100 100 100 100 27 72
1 0 0 0 52 8 4 4 5 5 83 16 0 0 2 66 1 8 1 18 48 51 8 5 5 5 92 100 100 97 100 90 49 82 83 100 86 69 100 100 100 96 84 83 100 100 100 84 24
0 0 0 0 60 3 3 4 21 92 96 1 0 1 27 3 11 24 12 34 38 43 31 5 5 5 44 100 100 100 100 100 100 100 100 100 100 83 15 100 100 100 98 99 100 96 97 98 100
0 0 0 0 5 0 2 26 81 92 6 0 0 1 16 2 6 31 47 58 56 44 6 2 0 5 80 97 100 100 100 100 100 100 98 92 100 11 5 5 32 99 100 100 100 100 99 98 51
0 0 0 0 0 2 4 18 100 14 4 5 3 0 2 5 4 33 92 94 64 9 0 0 0 3 4 5 94 98 31 79 92 76 20 64 11 74 6 8 94 100 88 100 100 100 100 72 96
0 0 0 0 37 5 3 28 78 6 5 51 4 1 10 5 2 80 100 100 53 4 0 0 0 1 1 61 64 100 100 96 12 88 70 89 69 5 5 5 7 97 98 100 100 100 100 99 86
0 0 0 0 100 5 5 48 5 60 5 6 0 5 4 5 5 54 93 100 8 4 0 0 0 0 49 98 61 21 72 84 93 68 12 5 12 69 5 78 82 97 92 97 100 100 100 100 77
0 0 0 5 100 3 12 19 4 100 28 5 0 5 5 0 4 49 99 91 2 4 0 0 12 100 99 36 1 0 3 17 24 35 5 4 0 27 15 4 5 99 77 50 100 100 100 100 78
0 0 0 61 44 0 3 21 8 100 4 0 5 8 4 0 13 19 34 11 0 0 0 0 100 100 35 0 0 0 0 0 0 0 0 0 0 0 66 84 59 97 100 96 100 99 100 100 97
0 0 6 61 14 0 27 5 100 42 5 5 90 51 0 2 14 48 29 18 0 4 0 29 41 8 0 0 0 0 0 0 0 0 0 0 0 0 0 3 100 100 100 100 75 100 93 100 96
0 0 85 21 45 0 2 5 100 90 94 100 85 8 1 5 5 46 10 3 0 4 0 4 0 0 0 0 0 0 0 0 0 0 0 0 0 0 0 0 4 98 17 100 100 100 100 100 100
4 83 93 5 21 0 0 22 100 100 100 100 84 5 30 89 7 15 5 5 67 45 0 0 100 58 43 88 0 1 0 0 0 0 0 0 0 0 0 0 0 4 4 8 71 88 100 100 100
6 16 23 5 84 0 2 29 100 100 100 95 100 46 100 69 99 65 74 8 31 100 70 66 95 93 99 100 100 100 35 54 0 0 0 0 0 0 0 0 0 0 0 0 0 4 20 11 68
1 0 4 1 3 0 2 84 100 100 100 100 100 80 100 100 100 99 100 100 71 98 100 100 90 48 100 100 100 100 100 100 80 0 0 0 0 0 0 0 0 0 0 0 0 0 0 0 0
0 0 0 2 3 5 19 79 100 100 100 100 100 80 100 100 93 100 100 100 100 16 100 98 49 0 98 100 100 100 100 100 100 74 0 0 0 0 0 0 0 0 0 0 0 0 0 0 0
5 6 5 96 56 5 49 99 99 100 100 100 100 100 100 100 100 100 100 100 100 59 100 100 87 98 67 100 100 100 100 85 26 0 0 0 0 0 0 0 0 0 0 0 0 0 0 0 0
4 6 50 26 100 99 75 93 100 100 100 100 100 79 88 83 100 100 100 100 100 100 100 100 100 100 100 100 100 100 100 63 12 6 0 0 0 0 0 0 0 0 0 0 0 0 0 0 0
5 10 100 100 100 98 71 4 10 100 100 100 100 100 100 100 100 92 83 62 49 19 90 100 100 100 100 100 100 100 4 12 0 0 0 0 0 0 0 0 0 0 0 0 0 0 0 0 0
5 0 59 100 100 100 100 100 98 100 93 100 100 100 100 100 100 100 100 31 5 34 4 37 100 100 100 100 100 78 19 0 0 0 0 0 0 0 74 0 0 0 0 0 0 0 0 0 0
97 81 100 100 100 100 98 16 100 100 100 100 100 100 100 100 100 100 100 100 46 82 20 0 0 41 91 100 100 83 90 0 0 0 0 0 0 0 12 0 0 0 0 0 0 0 0 0 0
94 100 100 100 100 84 53 6 100 97 100 100 100 100 100 100 100 100 100 100 90 97 48 4 0 0 0 100 100 93 100 19 0 0 0 0 0 0 0 0 0 0 0 0 0 0 0 0 0
8 1 16 5 12 99 90 2 100 96 100 100 100 100 100 100 100 100 100 100 50 98 9 5 0 0 0 1 97 100 100 63 7 0 0 0 0 0 0 0 0 0 0 0 0 0 0 0 0
84 94 6 5 96 100 100 88 100 100 100 100 100 100 100 100 100 100 100 100 82 9 5 5 5 0 0 0 10 39 34 58 2 0 0 0 0 0 0 0 0 5 0 5 1 0 0 0 0
80 91 80 63 32 100 75 94 100 100 100 100 100 100 100 100 100 100 100 75 46 5 5 5 5 5 0 0 2 0 0 0 0 0 0 0 0 0 0 0 0 0 0 0 2 5 0 0 0
68 36 30 90 15 100 74 34 46 100 100 100 100 100 100 100 100 100 100 100 78 17 4 15 10 79 19 0 0 0 0 0 0 0 0 0 0 0 5 5 6 5 5 5 5 5 0 0 0
100 97 36 45 5 100 29 4 100 93 100 100 100 100 100 100 100 100 100 100 100 100 100 100 100 100 96 9 1 0 0 0 0 0 0 0 0 1 9 84 56 5 5 5 5 4 5 0 0

GFSSGP_prec_cloud_333.txt.gz
Cloud_Cover
98 61 14 4 5 33 5 5 64 5 5 5 24 9 23 5 4 5 9 3 5 4 5 5 4 2 5 5 5 6 54 84 94 7 100 100 100 62 72 100 100 100 100 100 100 100 100 100 100
98 92 6 61 5 5 4 1 18 5 5 46 14 8 11 1 21 96 89 35 1 4 5 5 5 5 5 2 5 5 21 69 89 100 100 100 61 95 94 99 100 100 100 100 100 100 100 100 100
100 4 3 5 5 26 0 0 5 5 5 5 5 26 17 49 99 87 48 36 1 4 5 5 5 5 5 5 39 88 96 93 97 100 100 100 95 88 100 87 100 100 100 100 100 100 100 100 100
42 2 2 2 42 0 0 1 0 5 23 4 6 100 5 0 1 8 42 16 2 4 5 6 5 5 5 6 100 91 92 82 100 100 100 100 100 100 63 100 100 100 100 100 100 92 80 100 100
0 0 2 1 53 0 0 5 5 4 4 5 100 92 12 17 7 47 62 28 38 21 5 5 5 20 16 60 100 100 96 100 100 100 100 100 100 100 100 100 100 100 100 100 100 94 90 92 48
0 0 0 3 100 0 0 4 2 5 5 41 61 22 29 86 44 85 49 50 33 25 5 4 5 5 55 100 100 100 100 100 100 100 100 100 71 97 100 99 99 100 100 87 86 100 100 100 54
1 0 0 2 6 0 0 1 1 5 0 58 92 88 100 100 98 98 92 24 52 14 3 24 5 80 88 100 100 100 98 96 25 49 81 100 65 80 100 100 98 48 100 100 37 8 100 100 88
0 0 0 0 0 0 0 0 5 2 5 74 100 52 100 100 100 95 100 93 98 52 15 19 6 7 5 91 66 83 100 70 97 86 12 39 9 39 9 100 100 100 100 99 87 18 100 81 100
0 0 0 0 0 0 2 1 5 5 5 96 100 10 4 100 61 64 100 100 100 62 5 5 5 0 1 5 82 94 100 100 55 96 63 18 96 19 60 9 69 100 100 100 84 100 100 100 100
0 0 0 1 0 0 2 0 50 47 6 100 78 50 92 83 27 100 100 100 100 74 10 1 2 0 0 0 27 100 37 73 100 100 100 59 5 5 6 5 18 82 100 100 100 100 100 100 100
3 0 0 4 2 0 5 1 95 98 98 86 18 100 100 69 62 100 100 100 95 18 0 0 0 0 0 0 4 46 84 91 54 36 53 5 28 5 3 3 5 51 100 99 100 90 100 100 100
0 0 0 3 5 2 74 1 95 100 100 7 5 34 94 92 100 100 100 100 40 10 0 0 0 0 0 0 0 1 13 35 93 29 5 5 4 5 4 5 36 47 9 21 100 52 79 99 100
1 0 0 0 61 3 90 1 95 100 82 41 6 71 90 92 100 100 100 59 0 3 3 0 0 0 26 0 0 0 0 0 2 4 4 5 3 0 4 0 3 16 94 58 26 100 14 100 100
2 0 0 4 40 3 50 4 6 92 98 99 10 74 70 80 100 100 100 60 0 0 2 0 1 12 0 0 0 0 0 0 0 0 0 0 0 0 0 3 2 64 90 99 100 92 98 89 100
95 0 0 76 53 1 89 4 100 96 83 74 51 68 70 70 97 100 90 35 4 5 5 0 41 11 0 0 0 0 0 0 0 0 0 0 0 0 0 0 3 44 78 100 100 100 99 99 100
100 18 8 96 75 0 8 4 100 94 39 100 38 85 93 88 87 100 55 5 7 4 0 0 0 0 0 0 0 0 0 0 0 0 0 0 0 0 0 0 0 5 22 100 100 100 98 70 8
92 3 14 7 15 0 0 0 100 100 100 100 98 100 99 100 100 87 20 53 33 5 2 0 5 0 0 0 0 0 0 0 0 0 0 0 0 0 0 0 0 0 4 4 49 34 100 100 99
4 5 5 2 0 0 0 10 100 100 100 100 100 100 100 98 82 23 7 11 5 5 5 1 5 0 0 0 1 86 21 0 0 0 0 0 0 0 0 0 0 0 0 0 1 4 5 30 18
0 0 0 0 1 0 4 85 100 100 100 100 100 100 100 100 28 5 5 40 51 87 100 15 28 0 0 4 100 100 100 100 100 5 0 0 0 0 0 0 0 0 0 0 0 0 0 0 0
0 21 5 2 16 12 5 89 100 100 100 100 100 100 100 100 42 53 54 99 100 100 100 100 66 32 90 100 100 97 100 100 100 99 10 0 0 0 0 0 0 0 0 0 0 0 0 0 0
6 89 5 3 94 100 80 100 100 100 100 100 100 99 100 100 58 82 95 100 100 100 100 96 97 6 65 100 100 100 100 100 99 13 0 0 0 0 0 0 0 0 0 0 0 0 0 0 0
10 96 80 6 100 12 18 100 100 100 100 100 100 100 100 81 96 61 98 85 100 100 100 78 90 100 50 90 21 100 100 100 83 0 0 0 0 0 0 0 0 0 0 0 0 0 0 0 0
14 81 100 100 100 100 52 100 100 100 100 100 100 100 100 100 100 100 100 79 100 100 100 100 100 100 100 100 100 100 100 94 0 0 0 0 0 0 0 0 0 0 0 0 0 0 0 0 0
98 100 100 100 100 100 100 100 100 100 96 100 100 100 100 100 100 100 100 99 100 100 100 100 100 100 100 100 100 100 100 100 14 3 0 0 0 0 0 0 0 0 0 0 0 0 0 0 0
100 100 100 100 100 100 78 98 100 100 100 100 100 100 100 100 100 100 100 100 100 100 91 44 5 34 92 100 100 100 100 100 31 18 2 3 0 0 0 0 0 0 0 0 0 0 0 0 0
100 100 90 27 2 0 2 3 100 100 100 100 100 100 100 100 100 100 100 100 100 100 95 5 5 5 5 4 10 94 100 100 99 85 64 94 87 27 0 0 0 0 0 0 0 0 0 0 0
100 100 98 100 6 4 0 1 98 100 100 100 100 100 100 100 100 100 100 100 100 100 93 7 0 0 4 5 3 22 56 100 100 100 100 100 100 100 36 0 0 0 0 5 1 0 0 0 0
57 90 100 22 4 4 4 76 67 100 100 100 100 100 100 100 100 99 76 100 64 33 8 7 4 0 4 5 55 12 0 0 54 100 100 99 56 85 41 1 0 0 0 1 1 0 0 0 0
4 5 6 2 0 1 1 0 51 100 100 100 100 100 100 100 100 100 100 46 91 71 46 96 92 14 15 96 93 100 9 0 0 2 15 26 64 76 16 0 0 0 2 5 5 5 5 5 5
0 0 0 0 0 0 0 58 5 100 100 100 100 100 100 100 100 100 100 100 100 100 100 97 100 100 100 98 84 66 99 22 7 0 0 5 5 1 0 0 0 0 0 5 20 47 15 5 5